| time (UTC) | temp F | wind direction | speed knots | gust knots | rain 1hr in | rain 24hr in | rain mn in | humidity % | barometer mb |
| 20260507203203 | 52 | 221 | 0.0 | 2.6 | 0.00 | 0.00 | 0.00 | 71 | 1014.3 |
| 20260507202803 | 52 | 221 | 0.0 | 2.6 | 0.00 | 0.00 | 0.00 | 71 | 1014.2 |
| 20260507202403 | 52 | 221 | 0.0 | 2.6 | 0.00 | 0.00 | 0.00 | 71 | 1014.3 |
| 20260507202003 | 52 | 221 | 0.9 | 5.2 | 0.00 | 0.00 | 0.00 | 71 | 1014.2 |
| 20260507201603 | 52 | 221 | 0.9 | 5.2 | 0.00 | 0.00 | 0.00 | 71 | 1014.3 |
| 20260507201203 | 52 | 221 | 0.0 | 2.6 | 0.00 | 0.00 | 0.00 | 71 | 1014.2 |
| 20260507200803 | 52 | 221 | 0.0 | 2.6 | 0.00 | 0.00 | 0.00 | 71 | 1014.2 |
| 20260507200403 | 52 | 221 | 0.0 | 2.6 | 0.00 | 0.00 | 0.00 | 71 | 1014.1 |
| 20260507200003 | 52 | 221 | 0.0 | 4.3 | 0.00 | 0.00 | 0.00 | 71 | 1014.2 |
| 20260507195817 | 52 | 221 | 0.0 | 4.3 | 0.00 | 0.00 | 0.00 | 71 | 1014.1 |
| 20260507195418 | 52 | 221 | 0.0 | 4.3 | 0.00 | 0.00 | 0.00 | 71 | 1014.1 |
| 20260507194803 | 52 | 221 | 0.0 | 2.6 | 0.00 | 0.00 | 0.00 | 71 | 1014.1 |
| 20260507194403 | 52 | 221 | 0.0 | 2.6 | 0.00 | 0.00 | 0.00 | 72 | 1014.1 |
| 20260507194217 | 53 | 221 | 0.0 | 2.6 | 0.00 | 0.00 | 0.00 | 71 | 1014.1 |
| 20260507193603 | 53 | 221 | 0.0 | 1.7 | 0.00 | 0.00 | 0.00 | 71 | 1014.1 |
| 20260507193203 | 53 | 221 | 0.0 | 1.7 | 0.00 | 0.00 | 0.00 | 71 | 1014.0 |
| 20260507192803 | 53 | 221 | 0.0 | 1.7 | 0.00 | 0.00 | 0.00 | 71 | 1014.0 |
| 20260507192403 | 53 | 221 | 0.0 | 0.9 | 0.00 | 0.00 | 0.00 | 72 | 1014.0 |
| 20260507192003 | 53 | 221 | 0.0 | 3.5 | 0.00 | 0.00 | 0.00 | 71 | 1014.0 |
| 20260507191603 | 53 | 221 | 0.0 | 3.5 | 0.00 | 0.00 | 0.00 | 71 | 1014.0 |
| 20260507191203 | 53 | 221 | 0.0 | 1.7 | 0.00 | 0.00 | 0.00 | 71 | 1013.9 |
| 20260507190803 | 53 | 221 | 0.0 | 1.7 | 0.00 | 0.00 | 0.00 | 71 | 1013.9 |
| 20260507190403 | 53 | 221 | 0.0 | 1.7 | 0.00 | 0.00 | 0.00 | 71 | 1013.9 |
| 20260507190004 | 53 | 221 | 0.0 | 1.7 | 0.00 | 0.00 | 0.00 | 71 | 1013.9 |
| 20260507185603 | 53 | 221 | 0.0 | 4.3 | 0.00 | 0.00 | 0.00 | 71 | 1013.9 |
| 20260507185203 | 53 | 221 | 0.0 | 4.3 | 0.00 | 0.00 | 0.00 | 71 | 1013.8 |
| 20260507184803 | 53 | 221 | 0.0 | 2.6 | 0.00 | 0.00 | 0.00 | 71 | 1013.9 |
| 20260507184618 | 53 | 221 | 0.0 | 2.6 | 0.00 | 0.00 | 0.00 | 71 | 1013.8 |
| 20260507184003 | 54 | 221 | 0.0 | 1.7 | 0.00 | 0.00 | 0.00 | 71 | 1013.9 |
| 20260507183603 | 54 | 221 | 0.0 | 1.7 | 0.00 | 0.00 | 0.00 | 71 | 1013.9 |
| 20260507183417 | 54 | 221 | 0.0 | 1.7 | 0.00 | 0.00 | 0.00 | 70 | 1013.9 |
| 20260507182803 | 54 | 221 | 0.0 | 6.1 | 0.00 | 0.00 | 0.00 | 70 | 1013.9 |
| 20260507182618 | 54 | 221 | 0.0 | 6.1 | 0.00 | 0.00 | 0.00 | 70 | 1013.9 |
| 20260507182003 | 54 | 221 | 0.9 | 7.0 | 0.00 | 0.00 | 0.00 | 70 | 1013.9 |
| 20260507181603 | 54 | 221 | 0.0 | 7.0 | 0.00 | 0.00 | 0.00 | 70 | 1013.8 |
| 20260507181203 | 54 | 221 | 0.9 | 7.0 | 0.00 | 0.00 | 0.00 | 70 | 1013.8 |
| 20260507180803 | 54 | 221 | 0.9 | 5.2 | 0.00 | 0.00 | 0.00 | 70 | 1013.8 |
| 20260507180403 | 54 | 221 | 0.9 | 5.2 | 0.00 | 0.00 | 0.00 | 70 | 1013.8 |
| 20260507180004 | 54 | 221 | 0.0 | 3.5 | 0.00 | 0.00 | 0.00 | 69 | 1013.8 |
| 20260507175603 | 54 | 221 | 0.9 | 6.1 | 0.00 | 0.00 | 0.00 | 70 | 1013.8 |
| 20260507175417 | 54 | 222 | 0.9 | 6.1 | 0.00 | 0.00 | 0.00 | 69 | 1013.8 |
| 20260507174803 | 54 | 223 | 1.7 | 6.1 | 0.00 | 0.00 | 0.00 | 68 | 1013.8 |
| 20260507174403 | 55 | 223 | 1.7 | 7.8 | 0.00 | 0.00 | 0.00 | 68 | 1013.8 |
| 20260507174003 | 55 | 223 | 1.7 | 7.8 | 0.00 | 0.00 | 0.00 | 68 | 1013.8 |
| 20260507173603 | 55 | 223 | 0.9 | 7.8 | 0.00 | 0.00 | 0.00 | 68 | 1013.8 |
| 20260507173203 | 54 | 223 | 0.9 | 5.2 | 0.00 | 0.00 | 0.00 | 69 | 1013.8 |
| 20260507172803 | 54 | 223 | 0.9 | 6.1 | 0.00 | 0.00 | 0.00 | 69 | 1013.8 |
| 20260507172618 | 54 | 223 | 1.7 | 6.1 | 0.00 | 0.00 | 0.00 | 68 | 1013.8 |
| 20260507172003 | 54 | 223 | 1.7 | 6.1 | 0.00 | 0.00 | 0.00 | 68 | 1013.9 |
| 20260507171603 | 54 | 223 | 1.7 | 7.0 | 0.00 | 0.00 | 0.00 | 68 | 1013.8 |
| 20260507171203 | 54 | 223 | 2.6 | 7.8 | 0.00 | 0.00 | 0.00 | 68 | 1013.9 |
| 20260507170803 | 54 | 223 | 1.7 | 7.8 | 0.00 | 0.00 | 0.00 | 68 | 1014.0 |
| 20260507170617 | 54 | 223 | 1.7 | 7.8 | 0.00 | 0.00 | 0.00 | 68 | 1014.0 |
| 20260507170003 | 54 | 223 | 0.9 | 7.0 | 0.00 | 0.00 | 0.00 | 67 | 1014.0 |
| 20260507165818 | 54 | 223 | 0.9 | 7.0 | 0.00 | 0.00 | 0.00 | 68 | 1014.0 |
| 20260507165203 | 54 | 223 | 0.9 | 7.0 | 0.00 | 0.00 | 0.00 | 69 | 1014.1 |
| 20260507164803 | 54 | 223 | 0.9 | 6.1 | 0.00 | 0.00 | 0.00 | 68 | 1014.1 |
| 20260507164403 | 54 | 223 | 0.9 | 6.1 | 0.00 | 0.00 | 0.00 | 69 | 1014.1 |
| 20260507164003 | 54 | 223 | 1.7 | 7.0 | 0.00 | 0.00 | 0.00 | 68 | 1014.2 |
| 20260507163603 | 54 | 223 | 1.7 | 7.0 | 0.00 | 0.00 | 0.00 | 69 | 1014.1 |
| 20260507163203 | 54 | 223 | 1.7 | 6.1 | 0.00 | 0.00 | 0.00 | 69 | 1014.2 |
| 20260507162803 | 53 | 223 | 1.7 | 6.1 | 0.00 | 0.00 | 0.00 | 69 | 1014.2 |
| 20260507162403 | 53 | 223 | 1.7 | 6.1 | 0.00 | 0.00 | 0.00 | 69 | 1014.2 |
| 20260507162003 | 53 | 223 | 1.7 | 7.0 | 0.00 | 0.00 | 0.00 | 70 | 1014.2 |
| 20260507161603 | 53 | 224 | 1.7 | 7.0 | 0.00 | 0.00 | 0.00 | 69 | 1014.2 |
| 20260507161419 | 53 | 224 | 1.7 | 7.0 | 0.00 | 0.00 | 0.00 | 70 | 1014.2 |
| 20260507160803 | 53 | 224 | 1.7 | 7.0 | 0.00 | 0.00 | 0.00 | 70 | 1014.2 |
| 20260507160403 | 53 | 224 | 1.7 | 7.0 | 0.00 | 0.00 | 0.00 | 70 | 1014.3 |
| 20260507160003 | 53 | 224 | 1.7 | 7.0 | 0.00 | 0.00 | 0.00 | 70 | 1014.3 |
| 20260507155603 | 53 | 225 | 1.7 | 7.0 | 0.00 | 0.00 | 0.00 | 69 | 1014.3 |
| 20260507155203 | 53 | 225 | 1.7 | 6.1 | 0.00 | 0.00 | 0.00 | 70 | 1014.3 |
| 20260507154803 | 53 | 225 | 1.7 | 7.0 | 0.00 | 0.00 | 0.00 | 70 | 1014.3 |
| 20260507154617 | 53 | 225 | 1.7 | 7.0 | 0.00 | 0.00 | 0.00 | 70 | 1014.3 |
| 20260507154003 | 53 | 225 | 1.7 | 6.1 | 0.00 | 0.00 | 0.00 | 69 | 1014.3 |
| 20260507153603 | 53 | 225 | 0.9 | 6.1 | 0.00 | 0.00 | 0.00 | 69 | 1014.3 |
| 20260507153203 | 53 | 225 | 0.9 | 6.1 | 0.00 | 0.00 | 0.00 | 69 | 1014.3 |
| 20260507152803 | 53 | 225 | 0.9 | 4.3 | 0.00 | 0.00 | 0.00 | 69 | 1014.3 |
| 20260507152403 | 53 | 225 | 0.9 | 5.2 | 0.00 | 0.00 | 0.00 | 68 | 1014.4 |
| 20260507152217 | 53 | 225 | 0.9 | 5.2 | 0.00 | 0.00 | 0.00 | 68 | 1014.4 |
| 20260507151603 | 53 | 223 | 0.9 | 7.8 | 0.00 | 0.00 | 0.00 | 67 | 1014.4 |
| 20260507151418 | 53 | 222 | 0.9 | 7.8 | 0.00 | 0.00 | 0.00 | 67 | 1014.4 |
| 20260507150803 | 54 | 219 | 0.9 | 7.8 | 0.00 | 0.00 | 0.00 | 67 | 1014.5 |
| 20260507150403 | 54 | 219 | 1.7 | 5.2 | 0.00 | 0.00 | 0.00 | 67 | 1014.4 |
| 20260507150004 | 54 | 219 | 1.7 | 6.1 | 0.00 | 0.00 | 0.00 | 67 | 1014.4 |
| 20260507145603 | 54 | 219 | 2.6 | 10.4 | 0.00 | 0.00 | 0.00 | 67 | 1014.4 |
| 20260507145203 | 54 | 218 | 2.6 | 10.4 | 0.00 | 0.00 | 0.00 | 67 | 1014.4 |
| 20260507144803 | 54 | 218 | 3.5 | 11.3 | 0.00 | 0.00 | 0.00 | 66 | 1014.3 |
| 20260507144403 | 54 | 218 | 3.5 | 11.3 | 0.00 | 0.00 | 0.00 | 67 | 1014.4 |
| 20260507144003 | 54 | 219 | 2.6 | 11.3 | 0.00 | 0.00 | 0.00 | 65 | 1014.4 |
| 20260507143603 | 54 | 220 | 2.6 | 11.3 | 0.00 | 0.00 | 0.00 | 65 | 1014.4 |
| 20260507143203 | 54 | 221 | 2.6 | 8.7 | 0.00 | 0.00 | 0.00 | 67 | 1014.5 |
| 20260507142803 | 54 | 220 | 1.7 | 10.4 | 0.00 | 0.00 | 0.00 | 65 | 1014.4 |
| 20260507142403 | 54 | 219 | 2.6 | 10.4 | 0.00 | 0.00 | 0.00 | 66 | 1014.5 |
| 20260507142003 | 54 | 219 | 2.6 | 8.7 | 0.00 | 0.00 | 0.00 | 65 | 1014.5 |
| 20260507141603 | 54 | 219 | 3.5 | 11.3 | 0.00 | 0.00 | 0.00 | 65 | 1014.5 |
| 20260507141203 | 54 | 220 | 2.6 | 11.3 | 0.00 | 0.00 | 0.00 | 65 | 1014.6 |
| 20260507141018 | 55 | 220 | 2.6 | 11.3 | 0.00 | 0.00 | 0.00 | 65 | 1014.5 |
| 20260507140403 | 55 | 221 | 2.6 | 10.4 | 0.00 | 0.00 | 0.00 | 66 | 1014.5 |
| 20260507140003 | 55 | 220 | 3.5 | 16.5 | 0.00 | 0.00 | 0.00 | 67 | 1014.5 |
| 20260507135817 | 55 | 218 | 3.5 | 16.5 | 0.00 | 0.00 | 0.00 | 67 | 1014.5 |
| 20260507135203 | 55 | 210 | 2.6 | 15.6 | 0.00 | 0.00 | 0.00 | 66 | 1014.5 |
| 20260507135018 | 55 | 209 | 2.6 | 9.6 | 0.00 | 0.00 | 0.00 | 67 | 1014.5 |
| 20260507134618 | 55 | 209 | 2.6 | 9.6 | 0.00 | 0.00 | 0.00 | 68 | 1014.5 |
| 20260507134003 | 55 | 208 | 3.5 | 11.3 | 0.00 | 0.00 | 0.00 | 68 | 1014.5 |
| 20260507133603 | 55 | 209 | 3.5 | 11.3 | 0.00 | 0.00 | 0.00 | 67 | 1014.5 |
| 20260507133203 | 55 | 210 | 2.6 | 9.6 | 0.00 | 0.00 | 0.00 | 67 | 1014.4 |
| 20260507133018 | 55 | 210 | 2.6 | 9.6 | 0.00 | 0.00 | 0.00 | 68 | 1014.5 |
| 20260507132403 | 54 | 210 | 1.7 | 9.6 | 0.00 | 0.00 | 0.00 | 69 | 1014.5 |
| 20260507132003 | 54 | 209 | 1.7 | 11.3 | 0.00 | 0.00 | 0.00 | 70 | 1014.4 |
| 20260507131817 | 54 | 209 | 2.6 | 11.3 | 0.00 | 0.00 | 0.00 | 69 | 1014.4 |
| 20260507131203 | 54 | 206 | 2.6 | 11.3 | 0.00 | 0.00 | 0.00 | 68 | 1014.6 |
| 20260507130803 | 54 | 204 | 1.7 | 9.6 | 0.00 | 0.00 | 0.00 | 67 | 1014.6 |
| 20260507130618 | 55 | 204 | 1.7 | 8.7 | 0.00 | 0.00 | 0.00 | 67 | 1014.6 |
| 20260507130003 | 55 | 203 | 1.7 | 6.1 | 0.00 | 0.00 | 0.00 | 67 | 1014.5 |
| 20260507125817 | 55 | 204 | 1.7 | 7.0 | 0.00 | 0.00 | 0.00 | 67 | 1014.5 |
| 20260507125203 | 55 | 207 | 1.7 | 7.0 | 0.00 | 0.00 | 0.00 | 66 | 1014.6 |
| 20260507124803 | 55 | 208 | 1.7 | 6.1 | 0.00 | 0.00 | 0.00 | 66 | 1014.6 |
| 20260507124403 | 55 | 209 | 2.6 | 13.9 | 0.00 | 0.00 | 0.00 | 67 | 1014.6 |
| 20260507124003 | 55 | 210 | 2.6 | 13.9 | 0.00 | 0.00 | 0.00 | 66 | 1014.6 |
| 20260507123603 | 55 | 212 | 1.7 | 13.9 | 0.00 | 0.00 | 0.00 | 65 | 1014.6 |
| 20260507123203 | 55 | 212 | 2.6 | 7.0 | 0.00 | 0.00 | 0.00 | 66 | 1014.5 |
| 20260507122803 | 55 | 212 | 2.6 | 7.0 | 0.00 | 0.00 | 0.00 | 66 | 1014.6 |
| 20260507122403 | 55 | 212 | 1.7 | 6.1 | 0.00 | 0.00 | 0.00 | 65 | 1014.5 |
| 20260507122003 | 56 | 214 | 1.7 | 7.0 | 0.00 | 0.00 | 0.00 | 64 | 1014.6 |
| 20260507121816 | 56 | 218 | 1.7 | 7.0 | 0.00 | 0.00 | 0.00 | 64 | 1014.7 |
| 20260507121203 | 56 | 234 | 2.6 | 11.3 | 0.00 | 0.00 | 0.00 | 64 | 1014.6 |
| 20260507120803 | 56 | 242 | 3.5 | 12.2 | 0.00 | 0.00 | 0.00 | 64 | 1014.6 |
| 20260507120403 | 56 | 221 | 3.5 | 12.2 | 0.00 | 0.00 | 0.00 | 64 | 1014.7 |
| 20260507120218 | 56 | 212 | 3.5 | 12.2 | 0.00 | 0.00 | 0.00 | 65 | 1014.7 |
| 20260507115818 | 56 | 194 | 3.5 | 11.3 | 0.00 | 0.00 | 0.00 | 64 | 1014.8 |
| 20260507115203 | 55 | 206 | 2.6 | 10.4 | 0.00 | 0.00 | 0.00 | 64 | 1014.8 |
| 20260507114803 | 55 | 206 | 2.6 | 10.4 | 0.00 | 0.00 | 0.00 | 64 | 1014.7 |
| 20260507114618 | 55 | 206 | 2.6 | 10.4 | 0.00 | 0.00 | 0.00 | 64 | 1014.8 |
| 20260507114003 | 55 | 211 | 1.7 | 10.4 | 0.00 | 0.00 | 0.00 | 63 | 1014.9 |
| 20260507113603 | 55 | 212 | 2.6 | 13.0 | 0.00 | 0.00 | 0.00 | 62 | 1014.9 |
| 20260507113203 | 55 | 214 | 1.7 | 13.0 | 0.00 | 0.00 | 0.00 | 65 | 1014.9 |
| 20260507112803 | 55 | 214 | 2.6 | 13.0 | 0.00 | 0.00 | 0.00 | 62 | 1014.9 |
| 20260507112403 | 55 | 213 | 2.6 | 10.4 | 0.00 | 0.00 | 0.00 | 64 | 1014.9 |
| 20260507112003 | 55 | 201 | 2.6 | 10.4 | 0.00 | 0.00 | 0.00 | 61 | 1014.9 |
| 20260507111603 | 55 | 184 | 2.6 | 10.4 | 0.00 | 0.00 | 0.00 | 64 | 1014.8 |
| 20260507111203 | 54 | 174 | 1.7 | 8.7 | 0.00 | 0.00 | 0.00 | 66 | 1014.9 |
| 20260507110803 | 54 | 173 | 1.7 | 7.0 | 0.00 | 0.00 | 0.00 | 64 | 1014.8 |
| 20260507110617 | 54 | 173 | 1.7 | 7.0 | 0.00 | 0.00 | 0.00 | 65 | 1014.9 |
| 20260507110003 | 54 | 173 | 1.7 | 7.8 | 0.00 | 0.00 | 0.00 | 66 | 1014.9 |
| 20260507105603 | 53 | 176 | 1.7 | 7.8 | 0.00 | 0.00 | 0.00 | 67 | 1014.9 |
| 20260507105203 | 53 | 188 | 1.7 | 7.8 | 0.00 | 0.00 | 0.00 | 68 | 1015.0 |
| 20260507104803 | 52 | 208 | 1.7 | 7.0 | 0.00 | 0.00 | 0.00 | 69 | 1015.1 |
| 20260507104403 | 52 | 211 | 1.7 | 10.4 | 0.00 | 0.00 | 0.00 | 71 | 1015.0 |
| 20260507104003 | 51 | 208 | 2.6 | 10.4 | 0.00 | 0.00 | 0.00 | 70 | 1015.2 |
| 20260507103603 | 51 | 206 | 2.6 | 9.6 | 0.00 | 0.00 | 0.00 | 71 | 1015.2 |
| 20260507103203 | 51 | 205 | 1.7 | 7.0 | 0.00 | 0.00 | 0.00 | 70 | 1015.3 |
| 20260507102803 | 51 | 205 | 2.6 | 7.0 | 0.00 | 0.00 | 0.00 | 70 | 1015.3 |
| 20260507102403 | 51 | 205 | 2.6 | 9.6 | 0.00 | 0.00 | 0.00 | 70 | 1015.3 |
| 20260507102003 | 51 | 203 | 3.5 | 9.6 | 0.00 | 0.00 | 0.00 | 71 | 1015.3 |
| 20260507101818 | 51 | 201 | 3.5 | 10.4 | 0.00 | 0.00 | 0.00 | 70 | 1015.2 |
| 20260507101203 | 51 | 204 | 2.6 | 10.4 | 0.00 | 0.00 | 0.00 | 70 | 1015.3 |
| 20260507101016 | 51 | 206 | 2.6 | 10.4 | 0.00 | 0.00 | 0.00 | 70 | 1015.3 |
| 20260507100403 | 51 | 213 | 1.7 | 11.3 | 0.00 | 0.00 | 0.00 | 69 | 1015.3 |
| 20260507100004 | 51 | 212 | 2.6 | 11.3 | 0.00 | 0.00 | 0.00 | 70 | 1015.2 |
| 20260507095603 | 51 | 210 | 3.5 | 9.6 | 0.00 | 0.00 | 0.00 | 70 | 1015.2 |
| 20260507095203 | 51 | 207 | 2.6 | 9.6 | 0.00 | 0.00 | 0.00 | 69 | 1015.2 |
| 20260507095018 | 51 | 205 | 2.6 | 9.6 | 0.00 | 0.00 | 0.00 | 68 | 1015.2 |
| 20260507094403 | 51 | 198 | 2.6 | 7.0 | 0.00 | 0.00 | 0.00 | 71 | 1015.1 |
| 20260507094003 | 51 | 198 | 1.7 | 7.0 | 0.00 | 0.00 | 0.00 | 71 | 1015.1 |
| 20260507093603 | 51 | 201 | 2.6 | 7.0 | 0.00 | 0.00 | 0.00 | 71 | 1015.1 |
| 20260507093203 | 51 | 201 | 2.6 | 10.4 | 0.00 | 0.00 | 0.00 | 72 | 1015.1 |
| 20260507092803 | 51 | 202 | 2.6 | 10.4 | 0.00 | 0.00 | 0.00 | 71 | 1015.2 |
| 20260507092403 | 50 | 210 | 2.6 | 11.3 | 0.00 | 0.00 | 0.00 | 72 | 1015.1 |
| 20260507092003 | 50 | 218 | 3.5 | 11.3 | 0.00 | 0.00 | 0.00 | 73 | 1015.2 |
| 20260507091603 | 50 | 218 | 2.6 | 11.3 | 0.00 | 0.00 | 0.00 | 72 | 1015.1 |
| 20260507091203 | 50 | 219 | 2.6 | 9.6 | 0.00 | 0.00 | 0.00 | 72 | 1015.2 |
| 20260507090803 | 50 | 219 | 1.7 | 9.6 | 0.00 | 0.00 | 0.00 | 73 | 1015.2 |
| 20260507090616 | 50 | 219 | 2.6 | 9.6 | 0.00 | 0.00 | 0.00 | 73 | 1015.3 |
| 20260507090004 | 50 | 228 | 2.6 | 7.0 | 0.00 | 0.00 | 0.00 | 72 | 1015.3 |
| 20260507085603 | 50 | 235 | 2.6 | 7.0 | 0.00 | 0.00 | 0.00 | 72 | 1015.3 |
| 20260507085203 | 49 | 238 | 1.7 | 7.0 | 0.00 | 0.00 | 0.00 | 73 | 1015.3 |
| 20260507085018 | 49 | 238 | 1.7 | 7.0 | 0.00 | 0.00 | 0.00 | 75 | 1015.3 |
| 20260507084403 | 48 | 239 | 2.6 | 8.7 | 0.00 | 0.00 | 0.00 | 76 | 1015.3 |
| 20260507084217 | 48 | 239 | 2.6 | 8.7 | 0.00 | 0.00 | 0.00 | 77 | 1015.3 |
| 20260507083817 | 48 | 240 | 3.5 | 8.7 | 0.00 | 0.00 | 0.00 | 76 | 1015.4 |
| 20260507083418 | 48 | 241 | 2.6 | 8.7 | 0.00 | 0.00 | 0.00 | 77 | 1015.4 |
| 20260507082803 | 47 | 242 | 2.6 | 8.7 | 0.00 | 0.00 | 0.00 | 79 | 1015.4 |
| 20260507082403 | 46 | 243 | 2.6 | 10.4 | 0.00 | 0.00 | 0.00 | 80 | 1015.4 |
| 20260507082003 | 46 | 243 | 2.6 | 10.4 | 0.00 | 0.00 | 0.00 | 80 | 1015.4 |
| 20260507081603 | 46 | 244 | 1.7 | 7.8 | 0.00 | 0.00 | 0.00 | 80 | 1015.4 |
| 20260507081203 | 45 | 245 | 1.7 | 8.7 | 0.00 | 0.00 | 0.00 | 81 | 1015.4 |
| 20260507081018 | 45 | 245 | 1.7 | 8.7 | 0.00 | 0.00 | 0.00 | 81 | 1015.4 |
| 20260507080403 | 45 | 247 | 0.9 | 8.7 | 0.00 | 0.00 | 0.00 | 81 | 1015.4 |
| 20260507080004 | 45 | 249 | 0.9 | 6.1 | 0.00 | 0.00 | 0.00 | 82 | 1015.4 |
| 20260507075603 | 45 | 249 | 0.9 | 6.1 | 0.00 | 0.00 | 0.00 | 82 | 1015.4 |
| 20260507075417 | 45 | 249 | 0.9 | 6.1 | 0.00 | 0.00 | 0.00 | 82 | 1015.3 |
| 20260507074803 | 44 | 249 | 0.9 | 5.2 | 0.00 | 0.00 | 0.00 | 84 | 1015.4 |
| 20260507074403 | 44 | 249 | 0.9 | 6.1 | 0.00 | 0.00 | 0.00 | 85 | 1015.4 |
| 20260507074003 | 44 | 249 | 1.7 | 6.1 | 0.00 | 0.00 | 0.00 | 85 | 1015.4 |
| 20260507073817 | 44 | 249 | 1.7 | 7.0 | 0.00 | 0.00 | 0.00 | 85 | 1015.4 |
| 20260507073203 | 43 | 249 | 1.7 | 7.0 | 0.00 | 0.00 | 0.00 | 85 | 1015.4 |
| 20260507072803 | 43 | 249 | 1.7 | 7.0 | 0.00 | 0.00 | 0.00 | 86 | 1015.4 |
| 20260507072403 | 43 | 249 | 1.7 | 7.0 | 0.00 | 0.00 | 0.00 | 86 | 1015.4 |
| 20260507072218 | 43 | 249 | 1.7 | 7.0 | 0.00 | 0.00 | 0.00 | 86 | 1015.4 |
| 20260507071817 | 42 | 249 | 1.7 | 7.0 | 0.00 | 0.00 | 0.00 | 86 | 1015.3 |
| 20260507071203 | 42 | 249 | 0.9 | 7.0 | 0.00 | 0.00 | 0.00 | 87 | 1015.4 |
| 20260507071017 | 42 | 249 | 0.9 | 5.2 | 0.00 | 0.00 | 0.00 | 87 | 1015.4 |
| 20260507070618 | 42 | 249 | 0.9 | 5.2 | 0.00 | 0.00 | 0.00 | 87 | 1015.4 |
| 20260507070007 | 41 | 249 | 0.0 | 3.5 | 0.00 | 0.00 | 0.00 | 87 | 1015.4 |
| 20260507065603 | 41 | 249 | 0.0 | 2.6 | 0.00 | 0.00 | 0.00 | 88 | 1015.4 |
| 20260507065203 | 41 | 249 | 0.9 | 4.3 | 0.00 | 0.00 | 0.00 | 88 | 1015.4 |
| 20260507064803 | 41 | 249 | 1.7 | 6.1 | 0.00 | 0.00 | 0.00 | 88 | 1015.4 |
| 20260507064403 | 40 | 249 | 0.9 | 6.1 | 0.00 | 0.00 | 0.00 | 88 | 1015.5 |
| 20260507064218 | 40 | 249 | 0.9 | 6.1 | 0.00 | 0.00 | 0.00 | 88 | 1015.5 |
| 20260507063603 | 40 | 249 | 0.9 | 3.5 | 0.00 | 0.00 | 0.00 | 88 | 1015.5 |
| 20260507063417 | 40 | 249 | 0.9 | 3.5 | 0.00 | 0.00 | 0.00 | 88 | 1015.5 |
| 20260507063017 | 40 | 249 | 0.9 | 3.5 | 0.00 | 0.00 | 0.00 | 89 | 1015.5 |
| 20260507062403 | 40 | 249 | 0.0 | 4.3 | 0.00 | 0.00 | 0.00 | 90 | 1015.5 |
| 20260507062003 | 39 | 249 | 0.0 | 4.3 | 0.00 | 0.00 | 0.00 | 90 | 1015.4 |
| 20260507061603 | 39 | 249 | 0.0 | 4.3 | 0.00 | 0.00 | 0.00 | 90 | 1015.4 |
| 20260507061203 | 39 | 249 | 0.0 | 3.5 | 0.00 | 0.00 | 0.00 | 90 | 1015.3 |
| 20260507060803 | 39 | 249 | 0.0 | 3.5 | 0.00 | 0.00 | 0.00 | 90 | 1015.3 |
| 20260507060403 | 38 | 249 | 0.0 | 3.5 | 0.00 | 0.00 | 0.00 | 90 | 1015.3 |
| 20260507060218 | 38 | 249 | 0.0 | 0.9 | 0.00 | 0.00 | 0.00 | 90 | 1015.3 |
| 20260507055603 | 38 | 249 | 0.0 | 1.7 | 0.00 | 0.00 | 0.00 | 91 | 1015.3 |
| 20260507055203 | 38 | 249 | 0.0 | 1.7 | 0.00 | 0.00 | 0.00 | 91 | 1015.3 |
| 20260507054803 | 38 | 249 | 0.0 | 1.7 | 0.00 | 0.00 | 0.00 | 91 | 1015.3 |
| 20260507054403 | 37 | 249 | 0.0 | 2.6 | 0.00 | 0.00 | 0.00 | 91 | 1015.2 |
| 20260507054003 | 37 | 249 | 0.0 | 2.6 | 0.00 | 0.00 | 0.00 | 91 | 1015.2 |
| 20260507053818 | 37 | 249 | 0.0 | 2.6 | 0.00 | 0.00 | 0.00 | 90 | 1015.2 |
| 20260507053204 | 37 | 249 | 0.0 | 0.9 | 0.00 | 0.00 | 0.00 | 90 | 1015.2 |
| 20260507052803 | 37 | 249 | 0.0 | 0.9 | 0.00 | 0.00 | 0.00 | 90 | 1015.2 |
| 20260507052403 | 37 | 249 | 0.0 | 0.9 | 0.00 | 0.00 | 0.00 | 90 | 1015.2 |
| 20260507052003 | 37 | 0 | 0.0 | 0.0 | 0.00 | 0.00 | 0.00 | 90 | 1015.2 |
| 20260507051818 | 37 | 0 | 0.0 | 0.0 | 0.00 | 0.00 | 0.00 | 90 | 1015.1 |
| 20260507051203 | 37 | 249 | 0.0 | 0.9 | 0.00 | 0.00 | 0.00 | 91 | 1015.1 |
| 20260507050803 | 37 | 249 | 0.0 | 0.9 | 0.00 | 0.00 | 0.00 | 90 | 1015.1 |
| 20260507050403 | 36 | 0 | 0.0 | 0.0 | 0.00 | 0.00 | 0.00 | 90 | 1015.1 |
| 20260507050003 | 36 | 0 | 0.0 | 0.0 | 0.00 | 0.00 | 0.00 | 90 | 1015.1 |
| 20260507045603 | 36 | 0 | 0.0 | 0.0 | 0.00 | 0.00 | 0.00 | 90 | 1015.1 |
| 20260507045203 | 36 | 0 | 0.0 | 0.0 | 0.00 | 0.00 | 0.00 | 90 | 1015.1 |
| 20260507044803 | 36 | 0 | 0.0 | 0.0 | 0.00 | 0.00 | 0.00 | 90 | 1015.1 |
| 20260507044617 | 36 | 0 | 0.0 | 0.0 | 0.00 | 0.00 | 0.00 | 90 | 1015.1 |
| 20260507044003 | 36 | 249 | 0.0 | 0.9 | 0.00 | 0.00 | 0.00 | 90 | 1015.2 |
| 20260507043603 | 36 | 249 | 0.0 | 0.9 | 0.00 | 0.00 | 0.00 | 89 | 1015.2 |
| 20260507043203 | 36 | 0 | 0.0 | 0.0 | 0.00 | 0.00 | 0.00 | 89 | 1015.1 |
| 20260507042803 | 36 | 249 | 0.0 | 0.9 | 0.00 | 0.00 | 0.00 | 89 | 1015.1 |
| 20260507042403 | 36 | 249 | 0.0 | 0.9 | 0.00 | 0.00 | 0.00 | 89 | 1015.1 |
| 20260507042217 | 36 | 249 | 0.0 | 2.6 | 0.00 | 0.00 | 0.00 | 89 | 1015.1 |
| 20260507041603 | 36 | 249 | 0.0 | 2.6 | 0.00 | 0.00 | 0.00 | 89 | 1015.1 |
| 20260507041203 | 36 | 249 | 0.0 | 1.7 | 0.00 | 0.00 | 0.00 | 89 | 1015.1 |
| 20260507040803 | 36 | 249 | 0.0 | 1.7 | 0.00 | 0.00 | 0.00 | 90 | 1015.1 |
| 20260507040403 | 36 | 249 | 0.0 | 0.9 | 0.00 | 0.00 | 0.00 | 90 | 1015.1 |
| 20260507040003 | 36 | 249 | 0.0 | 0.9 | 0.00 | 0.00 | 0.00 | 90 | 1015.1 |
| 20260507035817 | 36 | 249 | 0.0 | 0.9 | 0.00 | 0.00 | 0.00 | 90 | 1015.1 |
| 20260507035418 | 35 | 249 | 0.0 | 0.9 | 0.00 | 0.00 | 0.00 | 91 | 1015.1 |
| 20260507034803 | 35 | 0 | 0.0 | 0.0 | 0.00 | 0.00 | 0.00 | 90 | 1015.1 |
| 20260507034616 | 35 | 0 | 0.0 | 0.0 | 0.00 | 0.00 | 0.00 | 90 | 1015.2 |
| 20260507034003 | 35 | 249 | 0.0 | 0.9 | 0.00 | 0.00 | 0.00 | 90 | 1015.3 |
| 20260507033603 | 35 | 249 | 0.0 | 0.9 | 0.00 | 0.00 | 0.00 | 90 | 1015.3 |
| 20260507033203 | 35 | 249 | 0.0 | 0.9 | 0.00 | 0.00 | 0.00 | 90 | 1015.4 |
| 20260507032803 | 35 | 249 | 0.0 | 1.7 | 0.00 | 0.00 | 0.00 | 90 | 1015.3 |
| 20260507032403 | 35 | 249 | 0.0 | 1.7 | 0.00 | 0.00 | 0.00 | 90 | 1015.3 |
| 20260507032003 | 35 | 0 | 0.0 | 0.0 | 0.00 | 0.00 | 0.00 | 90 | 1015.3 |
| 20260507031817 | 34 | 0 | 0.0 | 0.0 | 0.00 | 0.00 | 0.00 | 90 | 1015.3 |
| 20260507031203 | 34 | 0 | 0.0 | 0.0 | 0.00 | 0.00 | 0.00 | 90 | 1015.3 |
| 20260507030803 | 34 | 0 | 0.0 | 0.0 | 0.00 | 0.00 | 0.00 | 90 | 1015.3 |
| 20260507030403 | 34 | 0 | 0.0 | 0.0 | 0.00 | 0.00 | 0.00 | 90 | 1015.3 |
| 20260507030003 | 34 | 0 | 0.0 | 0.0 | 0.00 | 0.00 | 0.00 | 90 | 1015.3 |
| 20260507025603 | 34 | 0 | 0.0 | 0.0 | 0.00 | 0.00 | 0.00 | 90 | 1015.3 |
| 20260507025203 | 34 | 0 | 0.0 | 0.0 | 0.00 | 0.00 | 0.00 | 90 | 1015.4 |
| 20260507024803 | 34 | 0 | 0.0 | 0.0 | 0.00 | 0.00 | 0.00 | 90 | 1015.3 |
| 20260507024403 | 34 | 0 | 0.0 | 0.0 | 0.00 | 0.00 | 0.00 | 90 | 1015.3 |
| 20260507024003 | 34 | 0 | 0.0 | 0.0 | 0.00 | 0.00 | 0.00 | 90 | 1015.3 |
| 20260507023603 | 34 | 0 | 0.0 | 0.0 | 0.00 | 0.00 | 0.00 | 90 | 1015.3 |
| 20260507023203 | 34 | 0 | 0.0 | 0.0 | 0.00 | 0.00 | 0.00 | 89 | 1015.3 |
| 20260507022803 | 34 | 0 | 0.0 | 0.0 | 0.00 | 0.00 | 0.00 | 89 | 1015.3 |
| 20260507022403 | 34 | 0 | 0.0 | 0.0 | 0.00 | 0.00 | 0.00 | 89 | 1015.4 |
| 20260507022003 | 34 | 0 | 0.0 | 0.0 | 0.00 | 0.00 | 0.00 | 89 | 1015.3 |
| 20260507021817 | 34 | 0 | 0.0 | 0.0 | 0.00 | 0.00 | 0.00 | 89 | 1015.3 |
| 20260507021203 | 34 | 0 | 0.0 | 0.0 | 0.00 | 0.00 | 0.00 | 89 | 1015.4 |
| 20260507020803 | 34 | 0 | 0.0 | 0.0 | 0.00 | 0.00 | 0.00 | 89 | 1015.4 |
| 20260507020618 | 34 | 0 | 0.0 | 0.0 | 0.00 | 0.00 | 0.00 | 89 | 1015.4 |
| 20260507020003 | 35 | 249 | 0.0 | 0.9 | 0.00 | 0.00 | 0.00 | 89 | 1015.4 |
| 20260507015817 | 35 | 249 | 0.0 | 0.9 | 0.00 | 0.00 | 0.00 | 90 | 1015.5 |
| 20260507015417 | 35 | 249 | 0.0 | 0.9 | 0.00 | 0.00 | 0.00 | 90 | 1015.5 |
| 20260507014803 | 34 | 0 | 0.0 | 0.0 | 0.00 | 0.00 | 0.00 | 91 | 1015.5 |
| 20260507014403 | 34 | 0 | 0.0 | 0.0 | 0.00 | 0.00 | 0.00 | 90 | 1015.5 |
| 20260507014003 | 34 | 0 | 0.0 | 0.0 | 0.00 | 0.00 | 0.00 | 90 | 1015.5 |
| 20260507013603 | 34 | 0 | 0.0 | 0.0 | 0.00 | 0.00 | 0.00 | 90 | 1015.5 |
| 20260507013203 | 34 | 0 | 0.0 | 0.0 | 0.00 | 0.00 | 0.00 | 90 | 1015.5 |
| 20260507012803 | 34 | 0 | 0.0 | 0.0 | 0.00 | 0.00 | 0.00 | 90 | 1015.5 |
| 20260507012403 | 34 | 0 | 0.0 | 0.0 | 0.00 | 0.00 | 0.00 | 90 | 1015.5 |
| 20260507012003 | 34 | 0 | 0.0 | 0.0 | 0.00 | 0.00 | 0.00 | 90 | 1015.6 |
| 20260507011603 | 34 | 0 | 0.0 | 0.0 | 0.00 | 0.00 | 0.00 | 90 | 1015.5 |
| 20260507011203 | 34 | 0 | 0.0 | 0.0 | 0.00 | 0.00 | 0.00 | 91 | 1015.5 |
| 20260507010803 | 33 | 0 | 0.0 | 0.0 | 0.00 | 0.00 | 0.00 | 90 | 1015.5 |
| 20260507010403 | 33 | 0 | 0.0 | 0.0 | 0.00 | 0.00 | 0.00 | 90 | 1015.6 |
| 20260507010004 | 33 | 0 | 0.0 | 0.0 | 0.00 | 0.00 | 0.00 | 90 | 1015.6 |
| 20260507005603 | 33 | 0 | 0.0 | 0.0 | 0.00 | 0.00 | 0.00 | 89 | 1015.5 |
| 20260507005417 | 33 | 0 | 0.0 | 0.0 | 0.00 | 0.00 | 0.00 | 89 | 1015.5 |
| 20260507004803 | 33 | 0 | 0.0 | 0.0 | 0.00 | 0.00 | 0.00 | 88 | 1015.6 |
| 20260507004403 | 33 | 0 | 0.0 | 0.0 | 0.00 | 0.00 | 0.00 | 88 | 1015.7 |
| 20260507004003 | 33 | 0 | 0.0 | 0.0 | 0.00 | 0.00 | 0.00 | 88 | 1015.7 |
| 20260507003603 | 34 | 0 | 0.0 | 0.0 | 0.00 | 0.00 | 0.00 | 88 | 1015.7 |
| 20260507003203 | 34 | 0 | 0.0 | 0.0 | 0.00 | 0.00 | 0.00 | 89 | 1015.8 |
| 20260507002803 | 34 | 0 | 0.0 | 0.0 | 0.00 | 0.00 | 0.00 | 90 | 1015.7 |
| 20260507002403 | 34 | 0 | 0.0 | 0.0 | 0.00 | 0.00 | 0.00 | 90 | 1015.7 |
| 20260507002003 | 34 | 0 | 0.0 | 0.0 | 0.00 | 0.00 | 0.00 | 89 | 1015.7 |
| 20260507001603 | 34 | 0 | 0.0 | 0.0 | 0.00 | 0.00 | 0.00 | 88 | 1015.7 |
| 20260507001203 | 33 | 0 | 0.0 | 0.0 | 0.00 | 0.00 | 0.00 | 88 | 1015.7 |
| 20260507000803 | 34 | 0 | 0.0 | 0.0 | 0.00 | 0.00 | 0.00 | 88 | 1015.7 |
| 20260507000405 | 34 | 0 | 0.0 | 0.0 | 0.00 | 0.00 | 0.00 | 88 | 1015.7 |
| 20260507000004 | 34 | 0 | 0.0 | 0.0 | 0.00 | 0.00 | 0.00 | 88 | 1015.7 |
| 20260506235603 | 34 | 0 | 0.0 | 0.0 | 0.00 | 0.00 | 0.00 | 87 | 1015.7 |
| 20260506235203 | 34 | 249 | 0.0 | 1.7 | 0.00 | 0.00 | 0.00 | 87 | 1015.7 |
| 20260506234803 | 34 | 249 | 0.0 | 2.6 | 0.00 | 0.00 | 0.00 | 87 | 1015.7 |
| 20260506234403 | 35 | 249 | 0.0 | 2.6 | 0.00 | 0.00 | 0.00 | 88 | 1015.8 |
| 20260506234003 | 35 | 249 | 0.0 | 1.7 | 0.00 | 0.00 | 0.00 | 89 | 1015.8 |
| 20260506233603 | 34 | 249 | 0.0 | 0.9 | 0.00 | 0.00 | 0.00 | 89 | 1015.7 |
| 20260506233203 | 34 | 0 | 0.0 | 0.0 | 0.00 | 0.00 | 0.00 | 89 | 1015.7 |
| 20260506232803 | 34 | 0 | 0.0 | 0.0 | 0.00 | 0.00 | 0.00 | 88 | 1015.7 |
| 20260506232403 | 34 | 0 | 0.0 | 0.0 | 0.00 | 0.00 | 0.00 | 88 | 1015.6 |
| 20260506232003 | 34 | 0 | 0.0 | 0.0 | 0.00 | 0.00 | 0.00 | 88 | 1015.7 |
| 20260506231603 | 34 | 0 | 0.0 | 0.0 | 0.00 | 0.00 | 0.00 | 87 | 1015.7 |
| 20260506231203 | 34 | 0 | 0.0 | 0.0 | 0.00 | 0.00 | 0.00 | 87 | 1015.8 |
| 20260506231018 | 34 | 0 | 0.0 | 0.0 | 0.00 | 0.00 | 0.00 | 87 | 1015.8 |
| 20260506230403 | 34 | 249 | 0.0 | 0.9 | 0.00 | 0.00 | 0.00 | 87 | 1015.8 |
| 20260506230004 | 34 | 249 | 0.0 | 0.9 | 0.00 | 0.00 | 0.00 | 87 | 1015.8 |
| 20260506225603 | 35 | 249 | 0.0 | 0.9 | 0.00 | 0.00 | 0.00 | 87 | 1015.8 |
| 20260506225203 | 35 | 0 | 0.0 | 0.0 | 0.00 | 0.00 | 0.00 | 87 | 1015.9 |
| 20260506224803 | 35 | 0 | 0.0 | 0.0 | 0.00 | 0.00 | 0.00 | 87 | 1015.9 |
| 20260506224403 | 35 | 249 | 0.0 | 0.9 | 0.00 | 0.00 | 0.00 | 87 | 1015.8 |
| 20260506224003 | 35 | 249 | 0.0 | 0.9 | 0.00 | 0.00 | 0.00 | 87 | 1015.9 |
| 20260506223817 | 35 | 249 | 0.0 | 0.9 | 0.00 | 0.00 | 0.00 | 86 | 1015.9 |
| 20260506223203 | 35 | 249 | 0.0 | 0.9 | 0.00 | 0.00 | 0.00 | 86 | 1015.9 |
| 20260506222803 | 35 | 249 | 0.0 | 0.9 | 0.00 | 0.00 | 0.00 | 86 | 1015.9 |
| 20260506222403 | 36 | 249 | 0.0 | 0.9 | 0.00 | 0.00 | 0.00 | 86 | 1015.9 |
| 20260506222003 | 36 | 0 | 0.0 | 0.0 | 0.00 | 0.00 | 0.00 | 86 | 1015.9 |
| 20260506221603 | 36 | 0 | 0.0 | 0.0 | 0.00 | 0.00 | 0.00 | 85 | 1015.9 |
| 20260506221418 | 36 | 0 | 0.0 | 0.0 | 0.00 | 0.00 | 0.00 | 85 | 1015.9 |
| 20260506220803 | 36 | 249 | 0.0 | 0.9 | 0.00 | 0.00 | 0.00 | 84 | 1015.9 |
| 20260506220403 | 36 | 249 | 0.0 | 0.9 | 0.00 | 0.00 | 0.00 | 84 | 1015.9 |
| 20260506220003 | 37 | 0 | 0.0 | 0.0 | 0.00 | 0.00 | 0.00 | 83 | 1016.0 |
| 20260506215603 | 37 | 0 | 0.0 | 0.0 | 0.00 | 0.00 | 0.00 | 83 | 1016.0 |
| 20260506215418 | 37 | 0 | 0.0 | 0.0 | 0.00 | 0.00 | 0.00 | 83 | 1016.0 |
| 20260506214803 | 37 | 0 | 0.0 | 0.0 | 0.00 | 0.00 | 0.00 | 82 | 1016.0 |
| 20260506214403 | 38 | 0 | 0.0 | 0.0 | 0.00 | 0.00 | 0.00 | 82 | 1016.1 |
| 20260506214217 | 38 | 0 | 0.0 | 0.0 | 0.00 | 0.00 | 0.00 | 82 | 1016.1 |
| 20260506213603 | 38 | 0 | 0.0 | 0.0 | 0.00 | 0.00 | 0.00 | 81 | 1016.1 |
| 20260506213203 | 38 | 0 | 0.0 | 0.0 | 0.00 | 0.00 | 0.00 | 82 | 1016.1 |
| 20260506212803 | 38 | 0 | 0.0 | 0.0 | 0.00 | 0.00 | 0.00 | 81 | 1016.0 |
| 20260506212403 | 38 | 0 | 0.0 | 0.0 | 0.00 | 0.00 | 0.00 | 81 | 1015.9 |
| 20260506212003 | 39 | 0 | 0.0 | 0.0 | 0.00 | 0.00 | 0.00 | 80 | 1016.0 |
| 20260506211603 | 39 | 0 | 0.0 | 0.0 | 0.00 | 0.00 | 0.00 | 80 | 1016.0 |
| 20260506211203 | 39 | 0 | 0.0 | 0.0 | 0.00 | 0.00 | 0.00 | 79 | 1016.0 |
| 20260506210803 | 39 | 0 | 0.0 | 0.0 | 0.00 | 0.00 | 0.00 | 78 | 1016.0 |
| 20260506210403 | 40 | 0 | 0.0 | 0.0 | 0.00 | 0.00 | 0.00 | 78 | 1015.9 |
| 20260506210003 | 40 | 0 | 0.0 | 0.0 | 0.00 | 0.00 | 0.00 | 78 | 1015.9 |
| 20260506205817 | 40 | 0 | 0.0 | 0.0 | 0.00 | 0.00 | 0.00 | 77 | 1015.9 |
| 20260506205417 | 40 | 0 | 0.0 | 0.0 | 0.00 | 0.00 | 0.00 | 77 | 1015.9 |
| 20260506204803 | 40 | 0 | 0.0 | 0.0 | 0.00 | 0.00 | 0.00 | 76 | 1015.9 |
| 20260506204403 | 41 | 0 | 0.0 | 0.0 | 0.00 | 0.00 | 0.00 | 76 | 1015.8 |
| 20260506204003 | 41 | 0 | 0.0 | 0.0 | 0.00 | 0.00 | 0.00 | 76 | 1015.8 |
| 20260506203603 | 41 | 0 | 0.0 | 0.0 | 0.00 | 0.00 | 0.00 | 76 | 1015.9 |